{"data":{"norad_id":57703,"epoch":"2026-05-25T01:37:14.587680Z","epoch_age_seconds":79960,"freshness":"FRESH","line1":"1 57703U 23129F   26145.06752995  .00005242  00000+0  19999-3 0  9992","line2":"2 57703  43.0032  46.5632 0001293 261.0871  98.9834 15.27559506152220","mean_motion":15.27559506,"eccentricity":0.0001293,"inclination_deg":43.0032,"raan_deg":46.5632,"arg_perigee_deg":261.0871,"mean_anomaly_deg":98.9834,"bstar":0.00019999,"rev_number":15222,"period_min":94.2680134125,"perigee_km":482.22330383743,"apogee_km":483.9976224314,"semimajor_km":6861.2474631344,"source":"CELESTRAK","updated_at":"2026-05-25T13:38:18.371969Z"}}